Погода в Григоровке

Украина / Херсонская область     46°17′29″N   33°44′06″E
темп.,
°C
ветер,
м/с
пор.,
м/с
влажн.,
%
обл.,
%
осадки,
мм/ч
давл.,
гПа
погр.,
м
28 февраля, вс
вс2823:00+5ссз5880100 0.0 1019388
02:00+4ссз5986100 0.1 1020468
05:00+4сз5887100 0.1 1020516
08:00+4сз6982100 0.1 1021574
11:00+4ссз689498 0.3 1022475
14:00+4ссз578495 0.5 1022517
17:00+4ссз588099 0.2 1022599
20:00+3ссз488897 0.2 1023499
1 марта, пн
пн123:00+2зсз469196 0.0 1024220
02:00+2зсз348498 0.0 1024167
05:000зсз338390 0.0 102491
08:00+2с227788 0.0 1025146
11:00+4всв126533 0.0 1026730
14:00+5в026362 0.1 1027681
17:00+5ссв3467100 0.1 1027659
20:00+3ссв337895 0.1 102984
2 марта, вт
вт223:00+1с357654 0.0 1031156
02:00+1с237557 0.0 103179
05:000с127846 0.0 103042
08:00+2з337165 0.0 1030211
11:00+4з456285 0.0 1030849
14:00+6зюз675981 0.0 1028804
17:00+5зюз8116875 0.0 1025622
20:00+4зюз8138138 0.0 1025420
3 марта, ср
ср323:00+4зюз712850 0.0 1023286
02:00+3зсз611895 0.0 1022258
05:00+3ссз599121 0.0 1022286
08:00+3ссз6108153 0.0 1024780
11:00+7ссз795990 0.0 10251018
14:00+8ссз685069 0.0 10261085
17:00+7с35560 0.0 1026194
20:00+4ссз22680 0.0 102722
4 марта, чт
чт423:00+3ссз11730 0.0 102822
02:00+2ссз11750 0.0 102722
05:00+2сз11770 0.0 102722
08:00+4ююз23660 0.0 1026107
11:00+7юз56620 0.0 1025676
14:00+7зюз67590 0.0 1023662
17:00+6зюз610710 0.0 1021512
20:00+4ююз5108010 0.0 1020322